EW8832 Weather Reports


Display with metric or nautical units.
time (UTC)temp
F
wind
direction
speed
MPH
gust
MPH
rain 1hr
in
rain 24hr
in
rain mn
in
humidity
%
barometer
mb
20260506160050 51 61 8.0 15.0 0.00 0.00 0.00 72 1015.8
20260506154538 51 86 10.0 19.0 0.00 0.00 0.00 76 1015.4
20260506153037 51 101 10.0 15.0 0.00 0.00 0.00 75 1015.4
20260506151536 50 52 10.0 15.0 0.00 0.00 0.00 76 1015.7
20260506150034 50 59 9.0 15.0 0.00 0.00 0.00 76 1015.9
20260506144532 49 12 8.0 14.0 0.00 0.00 0.00 79 1015.3
20260506143035 49 44 8.0 16.0 0.00 0.00 0.00 79 1015.2
20260506141530 49 44 9.0 17.0 0.00 0.00 0.00 80 1014.8
20260506140029 48 88 8.0 15.0 0.00 0.00 0.00 83 1014.6
20260506134526 47 39 5.0 14.0 0.00 0.00 0.00 83 1015.2
20260506133024 47 35 8.0 15.0 0.00 0.00 0.00 84 1015.4
20260506131539 47 46 7.0 17.0 0.00 0.00 0.00 84 1015.2
20260506130033 47 42 4.0 12.0 0.00 0.00 0.00 84 1015.0
20260506124518 47 43 6.0 15.0 0.00 0.00 0.00 83 1014.8
20260506123018 47 21 7.0 14.0 0.00 0.01 0.00 83 1014.9
20260506121515 46 34 4.0 16.0 0.00 0.01 0.00 83 1014.4
20260506120017 46 19 5.0 11.0 0.00 0.01 0.00 83 1014.1
20260506114511 46 26 7.0 17.0 0.00 0.01 0.00 82 1014.0
20260506113009 47 360 7.0 15.0 0.00 0.01 0.00 82 1013.7
20260506111509 47 5 7.0 11.0 0.00 0.01 0.00 83 1013.5
20260506110006 47 55 4.0 9.0 0.00 0.01 0.00 81 1013.4
20260506104504 47 69 8.0 14.0 0.00 0.01 0.00 81 1013.0
20260506103003 47 75 4.0 13.0 0.00 0.02 0.00 83 1012.3
20260506101601 47 89 5.0 14.0 0.00 0.02 0.00 82 1012.4
20260506100057 47 68 8.0 14.0 0.00 0.02 0.00 83 1011.6
20260506094621 47 76 7.0 14.0 0.00 0.02 0.00 83 1011.2
20260506093054 47 76 8.0 15.0 0.00 0.04 0.00 84 1010.8
20260506091553 47 88 10.0 14.0 0.00 0.04 0.00 85 1010.7
20260506090050 47 46 7.0 13.0 0.00 0.04 0.00 86 1011.2
20260506084547 47 59 6.0 10.0 0.00 0.04 0.00 87 1011.0
20260506083042 47 46 3.0 12.0 0.00 0.42 0.00 88 1010.8
20260506081538 47 23 6.0 12.0 0.00 0.42 0.00 89 1010.4
20260506073033 47 28 5.0 14.0 0.00 0.45 0.00 90 1010.1
20260506071534 47 42 7.0 18.0 0.00 0.45 0.00 89 1010.1
20260506061525 47 22 9.0 16.0 0.00 0.46 0.00 91 1010.3
20260506044510 48 35 5.0 16.0 0.00 0.46 0.46 90 1009.8
20260506043010 48 76 6.0 17.0 0.00 0.46 0.46 90 1009.8
20260506041513 48 69 5.0 12.0 0.00 0.46 0.46 90 1009.8
20260506040009 48 49 8.0 18.0 0.00 0.46 0.46 90 1009.5
20260506034505 48 65 5.0 15.0 0.00 0.46 0.46 90 1009.1
20260506033003 48 30 8.0 14.0 0.00 0.46 0.46 90 1009.1
20260506031600 48 80 7.0 17.0 0.00 0.46 0.46 91 1008.9
20260506030058 48 49 10.0 21.0 0.00 0.46 0.46 92 1008.4
20260506024600 48 38 10.0 19.0 0.00 0.46 0.46 92 1007.9
20260506023059 47 50 7.0 15.0 0.00 0.46 0.46 93 1007.8
20260506021553 47 76 9.0 17.0 0.00 0.46 0.46 92 1007.2
20260506020051 48 61 10.0 19.0 0.00 0.46 0.46 93 1007.3
20260506014548 48 80 7.0 14.0 0.00 0.46 0.46 92 1007.0
20260506013046 48 65 8.0 15.0 0.00 0.46 0.46 92 1007.5
20260506011544 49 22 5.0 11.0 0.00 0.46 0.46 91 1007.1
20260506010043 49 36 5.0 14.0 0.00 0.46 0.46 91 1006.7
20260506004541 49 36 7.0 12.0 0.00 0.46 0.46 92 1006.7
20260506003040 49 19 8.0 16.0 0.00 0.46 0.46 91 1006.5
20260506001540 49 22 7.0 15.0 0.00 0.46 0.46 92 1006.3
20260506000036 49 55 7.0 17.0 0.00 0.46 0.46 92 1005.9
20260505234536 49 15 9.0 19.0 0.00 0.46 0.46 92 1005.9
20260505233029 50 24 9.0 15.0 0.00 0.46 0.46 92 1005.1
20260505231527 51 13 6.0 16.0 0.00 0.46 0.46 92 1005.4
20260505230044 51 19 10.0 17.0 0.00 0.46 0.46 91 1005.2
20260505224521 52 34 9.0 16.0 0.00 0.46 0.46 91 1004.6
20260505223019 53 32 7.0 16.0 0.00 0.46 0.46 90 1004.8
20260505221517 53 5 8.0 19.0 0.00 0.46 0.46 90 1004.5
20260505220016 54 30 8.0 16.0 0.00 0.46 0.46 90 1004.0
20260505214512 55 9 6.0 17.0 0.00 0.46 0.46 90 1003.9
20260505213012 55 41 11.0 16.0 0.00 0.46 0.46 89 1004.2
20260505211512 55 9 8.0 14.0 0.00 0.46 0.46 90 1003.9
20260505210005 56 12 9.0 17.0 0.00 0.46 0.46 90 1003.5
20260505204503 56 37 6.0 14.0 0.00 0.46 0.46 91 1003.7
20260505203003 57 9 7.0 15.0 0.00 0.46 0.46 91 1003.5
20260505201502 57 34 7.0 15.0 0.00 0.46 0.46 91 1003.6
20260505200002 57 360 7.0 18.0 0.00 0.46 0.46 91 1003.6
20260505194558 57 9 8.0 15.0 0.00 0.46 0.46 90 1003.7
20260505193056 58 15 8.0 14.0 0.00 0.46 0.46 90 1003.6
20260505191610 58 37 8.0 16.0 0.00 0.46 0.46 90 1002.2
20260505190052 59 360 14.0 21.0 0.00 0.46 0.46 89 1002.9
20260505184548 61 32 13.0 21.0 0.00 0.46 0.46 87 1002.9
20260505183050 65 311 5.0 11.0 0.00 0.46 0.46 89 1002.4
20260505181549 66 17 6.0 11.0 0.00 0.46 0.46 87 1002.5
20260505174554 70 157 3.0 7.0 0.00 0.46 0.46 85 1001.9
20260505173047 69 176 3.0 10.0 0.00 0.46 0.46 86 1002.2
20260505171548 69 159 7.0 10.0 0.00 0.46 0.46 87 1002.1
20260505170044 68 134 2.0 5.0 0.00 0.46 0.46 87 1002.2
20260505164546 69 88 3.0 7.0 0.00 0.46 0.46 86 1002.3
20260505163043 68 198 1.0 4.0 0.00 0.46 0.46 86 1002.3
20260505161550 69 167 3.0 9.0 0.00 0.46 0.46 85 1002.1